Springfield, OH

2:06 PM EST on December 16, 2017 (GMT -0500)
Springfield-Beckley Municipal

Weather History for KSGH - November, 2012

Change the Weather History Date:

Sunday, November 25, 2012

  Actual Average (KFFO) Record (KFFO)
Temperature  
Mean Temperature 32 °F -  
Max Temperature 41 °F 47 °F 65 °F (2006)
Min Temperature 24 °F 31 °F 12 °F (2005)
Degree Days  
Heating Degree Days 32    
Moisture  
Dew Point 21 °F    
Average Humidity 62    
Maximum Humidity 72    
Minimum Humidity 45    
Precipitation  
Precipitation 0.00 in - - ()
Sea Level Pressure  
Sea Level Pressure 30.02 in    
Wind  
Wind Speed 8 mph (SW)    
Max Wind Speed 16 mph    
Max Gust Speed -    
Visibility 7 miles    
Events      
Averages and records for this station are not official NWS values.
T = Trace of Precipitation, MM = Missing Value Source: NWS Daily Summary

Daily Weather History Graph

Daily Weather History Graph

Search for Another Location

Airport or City:

Trip Planner

Search our weather history database for the weather conditions in past years. The results will help you decide how hot, cold, wet, or windy it might be!

Date:

Astronomy

Nov. 25, 2012 Rise Set
Actual Time 7:31 AM EST 5:12 PM EST
Civil Twilight 7:02 AM EST 5:42 PM EST
Nautical Twilight 6:28 AM EST 6:15 PM EST
Astronomical Twilight 5:56 AM EST 6:48 PM EST
Moon 3:29 PM EST (11/25) 4:45 AM EST (11/25)
Length of Visible Light 10h 40m
Length of Day
9h 41m
Waxing Gibbous, 93% of the Moon is Illuminated
Nov 25
Waxing Gibbous
Nov 28
Full
Dec 6
Last Quarter
Dec 13
New
Dec 20
First Quarter

Hourly Weather History & Observations

Time (EST) Temp. Windchill Dew Point Humidity Pressure Visibility Wind Dir Wind Speed Gust Speed Precip Events Conditions
12:10 AM 24.8 °F 16.9 °F 15.8 °F 69% 30.11 in 8.0 mi SW 6.9 mph - N/A   Scattered Clouds
12:56 AM 25.2 °F 19.5 °F 17.1 °F 71% 30.13 in 8.0 mi SSW 4.6 mph - N/A   Clear
1:56 AM 26.1 °F 19.4 °F 17.1 °F 69% 30.09 in 8.0 mi South 5.8 mph - N/A   Overcast
2:56 AM 26.1 °F 19.4 °F 17.1 °F 69% 30.11 in 8.0 mi SSW 5.8 mph - N/A   Partly Cloudy
3:56 AM 25.2 °F 17.3 °F 17.1 °F 71% 30.09 in 7.0 mi SSW 6.9 mph - N/A   Clear
4:56 AM 26.1 °F 16.8 °F 17.1 °F 69% 30.08 in 7.0 mi SW 9.2 mph - N/A   Mostly Cloudy
5:56 AM 26.1 °F 16.8 °F 18.1 °F 72% 30.06 in 7.0 mi SSW 9.2 mph - N/A   Overcast
6:56 AM 27.1 °F 17.5 °F 18.1 °F 69% 30.04 in 7.0 mi SSW 10.4 mph - N/A   Scattered Clouds
7:56 AM 28.0 °F 17.5 °F 18.1 °F 66% 30.01 in 6.0 mi SSW 12.7 mph - N/A   Haze
8:56 AM 29.1 °F 17.9 °F 19.0 °F 66% 30.00 in 6.0 mi SSW 15.0 mph - N/A   Haze
9:56 AM 30.0 °F 19.1 °F 19.0 °F 64% 30.00 in 6.0 mi SW 15.0 mph - N/A   Haze
10:56 AM 34.9 °F 25.7 °F 20.1 °F 55% 29.99 in 7.0 mi SW 13.8 mph - N/A   Clear
11:56 AM 36.9 °F 27.5 °F 20.1 °F 51% 29.95 in 6.0 mi WSW 16.1 mph - N/A   Haze
12:56 PM 39.9 °F 31.8 °F 21.0 °F 47% 29.93 in 7.0 mi WSW 15.0 mph - N/A   Clear
1:56 PM 39.9 °F 32.9 °F 22.1 °F 49% 29.92 in 7.0 mi WSW 11.5 mph - N/A   Clear
2:56 PM 41.9 °F 35.0 °F 22.1 °F 45% 29.92 in 7.0 mi WSW 12.7 mph - N/A   Clear
3:56 PM 41.9 °F 36.3 °F 22.1 °F 45% 29.93 in 7.0 mi WSW 9.2 mph - N/A   Clear
4:56 PM 37.9 °F 32.7 °F 23.0 °F 55% 29.95 in 7.0 mi West 6.9 mph - N/A   Clear
5:56 PM 36.9 °F 33.1 °F 22.1 °F 55% 29.96 in 8.0 mi SW 4.6 mph - N/A   Clear
6:56 PM 34.9 °F 30.8 °F 22.1 °F 60% 29.99 in 8.0 mi SSW 4.6 mph - N/A   Clear
7:56 PM 32.9 °F 27.5 °F 23.0 °F 67% 30.01 in 8.0 mi WSW 5.8 mph - N/A   Clear
8:56 PM 34.9 °F 29.9 °F 25.2 °F 68% 30.02 in 8.0 mi WSW 5.8 mph - N/A   Clear
9:56 PM 36.0 °F 30.3 °F 25.2 °F 65% 30.03 in 8.0 mi West 6.9 mph - N/A   Clear
10:56 PM 36.0 °F 31.1 °F 25.2 °F 65% 30.03 in 8.0 mi WSW 5.8 mph - N/A   Clear
11:56 PM 36.0 °F 31.1 °F 26.1 °F 67% 30.05 in 7.0 mi West 5.8 mph - N/A   Scattered Clouds